Regional Weather Roundup
Issued by NWS

Home | Current Version | Previous Version | Text Only | Print | Product List | Glossary Off
Versions: 1 2 3 4 5 6 7 8 9 10 11 12 13 14 15 16 17 18 19 20 21 22 23 24 25 26 27 28 29 30 31 32 33 34 35 36 37 38 39 40 41 42 43 44 45 46 47 48 49 50

000
ASUS43 KLOT 051412
RWRIL

ILLINOIS REGIONAL WEATHER ROUNDUP
NATIONAL WEATHER SERVICE CHICAGO/ROMEOVILLE IL
900 AM CDT SUN JUL 05 2015

NOTE: "FAIR" INDICATES FEW OR NO CLOUDS BELOW 12,000 FEET WITH NO
SIGNIFICANT WEATHER AND/OR OBSTRUCTIONS TO VISIBILITY.

* THESE STATIONS ARE NOT UNDER NWS QUALITY CONTROL. THEY ALSO MAY NOT
  REPORT WEATHER SUCH AS PRECIPITATION OR FOG.

ILZ001-002-007-009-015-016-024-051500-
NORTHWEST ILLINOIS

CITY           SKY/WX    TMP DP  RH WIND       PRES   REMARKS
MOLINE         SUNNY     73  64  73 SW3       30.06R
STERLING*      SUNNY     73  64  73 CALM      30.08S
SAVANNA*       SUNNY     72  63  74 S5        30.06S
$$

ILZ003-004-008-010-011-017-018-051500-
NORTH CENTRAL ILLINOIS

CITY           SKY/WX    TMP DP  RH WIND       PRES   REMARKS
ROCKFORD       SUNNY     71  62  73 CALM      30.10R
FREEPORT*      SUNNY     70  64  81 S3        30.10S
ROCHELLE*      SUNNY     71  64  79 CALM      30.10R
DE KALB*       SUNNY     69  63  80 CALM      30.10S
PERU*          SUNNY     73  63  71 S3        30.09S
$$

ILZ005-006-012>014-019>023-051500-
NORTHEAST ILLINOIS

CITY           SKY/WX    TMP DP  RH WIND       PRES   REMARKS
CHICAGO-OHARE  SUNNY     74  61  63 S3        30.08F FOG
CHICAGO-MIDWAY SUNNY     77  62  59 SW5       30.09S
AURORA         SUNNY     72  62  71 CALM      30.10S HAZE
LANSING*       SUNNY     73  60  63 CALM      30.11S
JOLIET*        SUNNY     74  66  76 CALM      30.09F
WAUKEGAN       SUNNY     73  61  65 SW3       30.08F
DUPAGE AIRPORT SUNNY     71  62  73 S3        30.09S HAZE
KANKAKEE*      SUNNY     72  65  78 CALM      30.11S
WHEELING       SUNNY     74  60  61 S5        30.10F
MORRIS*        SUNNY     71  64  78 CALM      30.07F
ROMEOVILLE*    SUNNY     73  61  66 CALM      30.09F
NORTHERLY ISL    N/A     76  58  53 W2          N/A
$$

LMZ740>746-051500-
SOUTHERN LAKE MICHIGAN

STATION/POSITION SKY/WX   TEMP    WIND        PRES    VSBY  WAVE
                          AIR SEA DIR/SP/G                  HT/PER
                          (F)     (DEG/KT/KT) (MB)    (MI)  (FT/S)
HARRISON CRIB              71     310/  1/  2   N/A
BURNHAM HARBOR             77      CALM  /  6   N/A
CALUMET HARBOR             72     230/  3/  4   N/A
BURNS HARBOR               70     200/  4/  6 1019.6S
MICHIGAN CITY              69     230/  3/  5   N/A
MICHIGAN CITY 6N           68 65     CALM       N/A           0
ST. JOSEPH                 66 64                N/A           0
$$

ILZ025>027-034>036-040-047-049-050-058-095>099-051500-
WEST-CENTRAL ILLINOIS

CITY           SKY/WX    TMP DP  RH WIND       PRES   REMARKS
QUINCY         SUNNY     73  65  75 S8        30.06R
GALESBURG*     SUNNY     71  65  80 CALM      30.07S
MACOMB*        SUNNY     71  66  86 S5        30.09R
JACKSONVILLE*  SUNNY     74  67  76 SE5       30.08S
PITTSFIELD*    SUNNY     72  66  81 SE6       30.08S
$$

ILZ028>032-037-038-041>044-048-051>054-059>061-051500-
CENTRAL ILLINOIS

CITY           SKY/WX    TMP DP  RH WIND       PRES   REMARKS
PONTIAC        SUNNY     72  67  84 SE3       30.10F
BLOOMINGTON    SUNNY     73  64  73 S6        30.11S
DECATUR        SUNNY     72  63  73 CALM      30.10R
PEORIA         SUNNY     74  63  68 VRB3      30.09R
LACON*         SUNNY     72  63  73 S3        30.08S
LINCOLN*       SUNNY     73  64  74 SE3       30.08F
SPRINGFIELD    SUNNY     75  66  73 E5        30.08S
TAYLORVILLE    SUNNY     72  64  78 CALM      30.08F
$$

ILZ033-039-045-046-055>057-062-063-051500-
EAST-CENTRAL ILLINOIS

CITY           SKY/WX    TMP DP  RH WIND       PRES   REMARKS
CHAMPAIGN      SUNNY     72  64  76 VRB3      30.10S
DANVILLE*      SUNNY     71  64  79 CALM      30.08S
RANTOUL*       SUNNY     74  63  68 SE3       30.11R
MATTOON          N/A     67  63  87 CALM      30.08S
PARIS*         SUNNY     72  66  82 CALM      30.10S
$$

ILZ079-100>102-051500-
SOUTHWEST ILLINOIS

CITY           SKY/WX    TMP DP  RH WIND       PRES   REMARKS
BELLEVILLE     DRIZZLE   75  73  94 CALM      30.07S
CAHOKIA*       SUNNY     75  68  78 CALM      30.07S
SPARTA*        SUNNY     74  69  85 CALM      30.09S
$$

ILZ064>066-069>071-074>076-080>082-084>086-088>090-092>094-051500-
SOUTH-CENTRAL ILLINOIS

CITY           SKY/WX    TMP DP  RH WIND       PRES   REMARKS
CARBONDALE     SUNNY     73  68  84 CALM      30.08S HAZE
CAIRO*         SUNNY     74  71  91 CALM      30.07F FOG
EFFINGHAM*     SUNNY     74  64  71 CALM      30.09S
MARION         MOSUNNY   72  70  94 SE3       30.09R FOG
MT. VERNON     SUNNY     75  64  69 CALM      30.09R
CENTRALIA*     SUNNY     74  66  75 CALM      30.08S
SALEM*         SUNNY     76  65  67 CALM      30.09R
$$

ILZ067-068-072-073-078-083-087-091-051500-
SOUTHEAST ILLINOIS

CITY           SKY/WX    TMP DP  RH WIND       PRES   REMARKS
LAWRENCEVILLE  MOSUNNY   76  68  76 E3        30.07F HAZE
FLORA*         MOSUNNY   72  67  84 CALM      30.08S
FAIRFIELD*     MOSUNNY   74  69  85 CALM      30.07R
HARRISBURG*    MOSUNNY   70  70  99 CALM      30.08S FOG
ROBINSON*      MOSUNNY   70  67  89 CALM      30.08F FOG
CARMI*         PTSUNNY   75  65  71 CALM      30.06S HAZE
$$

ABBREVIATIONS USED IN REMARKS
   TC - TEMPERATURE IN CELSIUS
  WCI - WIND CHILL INDEX
   HX - HEAT INDEX
  VSB - VISIBILITY
$$



USA.gov is the U.S. government's official web portal to all federal, state and local government web resources and services.